sat.trackr.live / text

‹ back to catalog

STARLINK-2740

NORAD 48690 · 2021-044BE

PAYLOAD ACTIVE UNKNOWN

§ Identity

Operator
Country
US
Launch date
2021-05-26
Launch site
AFETR
Launch vehicle
Mass (kg)
RCS (m²)

Purposes: comms

External: N2YO · Heavens-Above · Gunter

§ Orbital elements

Epoch: 2026-09-19T22:32:38.018688Z

Period
94.01 min
Inclination
53.1609°
Eccentricity
0.0001243
Mean motion
15.31689734 rev/d
Perigee alt
469.9 km
Apogee alt
471.6 km
Semi-major
6,848.9 km
B*
-4.8283e-6
RAAN
251.3172°
Arg perigee
126.5101°
Mean anomaly
233.6016°
Rev number
29,412

§ Raw data

STARLINK-27401 48690U 21044BE  26262.93932892 -.00000515  00000+0 -48283-5 0  99932 48690  53.1609 251.3172 0001243 126.5101 233.6016 15.31689734294126

JSON: /api/v1/satellites/48690 · /tle

For live sub-satellite position, see the globe view (requires WebGL).

§ Visibility from observer

Set your observer location to see the next 7 days of passes ≥ 10°. The values pass through the URL so the page stays shareable.

No JS? Fill the form by hand. The geolocation button needs JavaScript.